Seattle Boeing, WA
on Wednesday, February 27, 2013

Wednesday
Previous Day Next Day
Daily Summary
 ActualAverage (KSEA)Record (KSEA)
Temperature
Mean Temperature °F 44°F  
Max Temperature 50°F 51°F 70°F (1968)
Min Temperature 41°F 37°F 20°F (1962)
Degree Days
Heating Degree Days 20 21  
Month to date heating degree days 585  
Since 1 July heating degree days 3234  
Cooling Degree Days 0 0  
Month to date cooling degree days 0  
Year to date cooling degree days 0  
Moisture
Dew Point 40°F   
Average Humidity 79    
Maximum Humidity 89    
Minimum Humidity 63    
Precipitation
Precipitation 0.32 in 0.13 in 2.23 in (1972)
Month to date precipitation 3.38  
Year to date precipitation 8.95  
Snow
Snow 0.00 in in 1.50 in (1971)
Month to date snowfall  
Since 1 July snowfall  
Snow Depth in   
Wind
Wind Speed 4 mph   
Max Wind Speed 10 mph   
Max Gust Speed mph   
Visibility 9 miles   
Events Rain   

Key: T is trace of precipitation, MM is missing value
Source: NWS Daily Summary
Time(PST)TemperatureDew PointHumidity Pressure Visibility Wind DirectionWind SpeedGust SpeedPrecipitationEvents Conditions
12:53 AM 44.1°F 37.0°F 76% 30.22 in 5.0 miles SW 4.6 mph - 0.02 in Rain Light Rain
1:53 AM 43.0°F 37.9°F 82% 30.23 in 10.0 miles South 5.8 mph - 0.05 in   Overcast
2:53 AM 44.1°F 37.0°F 76% 30.24 in 10.0 miles South 8.1 mph - N/A   Scattered Clouds
3:53 AM 41.0°F 37.0°F 86% 30.24 in 10.0 miles SSE 10.4 mph - N/A   Partly Cloudy
4:53 AM 42.1°F 37.0°F 82% 30.27 in 10.0 miles SSE 6.9 mph - N/A   Scattered Clouds
5:53 AM 42.1°F 37.0°F 82% 30.29 in 10.0 miles Calm Calm - N/A   Scattered Clouds
6:53 AM 42.8°F 37.4°F 81% 30.31 in 10.0 miles Calm Calm - N/A   Overcast
7:53 AM 43.0°F 37.9°F 82% 30.30 in 10.0 miles ENE 3.5 mph - N/A   Overcast
8:53 AM 44.6°F 39.2°F 81% 30.30 in 10.0 miles ESE 4.6 mph - N/A   Mostly Cloudy
9:53 AM 46.0°F 37.9°F 73% 30.28 in 10.0 miles ESE 3.5 mph - N/A   Mostly Cloudy
10:53 AM 48.0°F 37.9°F 68% 30.30 in 10.0 miles SSE 5.8 mph - N/A   Mostly Cloudy
11:29 AM 48.2°F 37.4°F 66% 30.31 in 10.0 miles Calm Calm - N/A   Overcast
11:40 AM 48.2°F 37.4°F 66% 30.31 in 10.0 miles SSW 5.8 mph - N/A   Overcast
11:53 AM 48.9°F 37.0°F 64% 30.31 in 10.0 miles Variable 4.6 mph - N/A   Overcast
12:53 PM 48.9°F 37.0°F 64% 30.30 in 10.0 miles Calm Calm - N/A   Overcast
1:43 PM 48.2°F 39.2°F 71% 30.28 in 10.0 miles Calm Calm - 0.00 in Rain Light Rain
1:53 PM 50.0°F 39.0°F 66% 30.27 in 10.0 miles Calm Calm - 0.00 in   Overcast
2:53 PM 50.0°F 37.9°F 63% 30.27 in 10.0 miles Calm Calm - 0.00 in Rain Light Rain
3:53 PM 48.9°F 41.0°F 74% 30.27 in 10.0 miles NNW 3.5 mph - 0.01 in   Overcast
4:53 PM 48.0°F 41.0°F 77% 30.26 in 10.0 miles NW 3.5 mph - 0.00 in   Overcast
5:53 PM 48.0°F 42.1°F 80% 30.26 in 8.0 miles Calm Calm - 0.02 in Rain Light Rain
6:53 PM 46.9°F 42.1°F 83% 30.26 in 6.0 miles ENE 5.8 mph - 0.07 in Rain Light Rain
7:53 PM 46.0°F 43.0°F 89% 30.28 in 4.0 miles Calm Calm - 0.08 in Rain Rain
8:01 PM 46.4°F 42.8°F 87% 30.28 in 4.0 miles Calm Calm - 0.01 in Rain Light Rain
8:51 PM 46.4°F 42.8°F 87% 30.28 in 8.0 miles Calm Calm - 0.06 in Rain Light Rain
8:53 PM 46.0°F 42.1°F 86% 30.28 in 9.0 miles Calm Calm - 0.06 in Rain Light Rain
9:53 PM 46.0°F 41.0°F 83% 30.27 in 10.0 miles NE 3.5 mph - 0.01 in   Overcast
10:18 PM 46.4°F 42.8°F 87% 30.28 in 10.0 miles Calm Calm - N/A   Overcast
10:34 PM 46.4°F 42.8°F 87% 30.28 in 10.0 miles Calm Calm - N/A   Overcast
10:43 PM 46.4°F 42.8°F 87% 30.27 in 10.0 miles Calm Calm - N/A   Overcast
10:51 PM 46.4°F 42.8°F 87% 30.27 in 10.0 miles Calm Calm - 0.00 in Rain Light Rain
10:53 PM 46.0°F 42.1°F 86% 30.27 in 10.0 miles Calm Calm - 0.00 in Rain Light Rain
11:53 PM 46.0°F 42.1°F 86% 30.26 in 10.0 miles NE 5.8 mph - 0.00 in   Overcast
Moon Phase
Feb. 27 Mar. 04 Mar. 11 Mar. 19 Mar. 27
Sunrise:06:52 AM (PST) Moon Rise:08:33 PM (PST)2/27
Sunset:05:51 PM (PST) Moon Set:07:19 AM (PST)2/27

Copyright © 2014 The Weather Underground, Inc.